Regional Weather Roundup
Issued by NWS

Home | Current Version | Previous Version | Text Only | Print | Product List | Glossary On
Versions: 1 2 3 4 5 6 7 8 9 10 11 12 13 14 15 16 17 18 19 20 21 22 23 24 25 26 27 28 29 30 31 32 33 34 35 36 37 38 39 40 41 42 43 44 45 46 47 48 49 50
000
ASUS43 KFSD 302110
RWRSD

WEATHER ROUNDUP FOR SOUTH DAKOTA
NATIONAL WEATHER SERVICE SIOUX FALLS SD
400 PM CDT SUN APR 30 2017

NOTE: "FAIR" INDICATES FEW OR NO CLOUDS BELOW 12,000 FEET WITH NO
SIGNIFICANT WEATHER AND/OR OBSTRUCTIONS TO VISIBILITY.


SDZ001>005-009-010-012>017-302200-
NORTHWEST AND NORTH CENTRAL SOUTH DAKOTA

CITY           SKY/WX    TMP DP  RH WIND       PRES   REMARKS
BUFFALO          N/A     61  19  19 SW8       29.84F
FAITH            N/A     61  22  22 N12       29.89F
MOBRIDGE       PTSUNNY   63  19  18 NE14      29.87F
$$

SDZ012>016-024>037-041>051-057-063-072>074-302200-
SOUTHWEST AND SOUTH CENTRAL SOUTH DAKOTA

CITY           SKY/WX    TMP DP  RH WIND       PRES   REMARKS
RAPID CTY ARPT SUNNY     59  24  26 N12       29.90F
PIERRE         PTSUNNY   58  22  24 NE20      29.85F
CUSTER         SUNNY     53  16  23 MISG      29.89F
ELLSWORTH AFB  SUNNY     58  20  22 N9        29.90F
PHILIP         CLOUDY    59  20  22 NE14G25   29.87F
PINE RIDGE     CLOUDY    57  21  24 N18G26    29.86F
SPEARFISH      FAIR      55  21  26 NE7       29.92F
WINNER         FAIR      52  21  29 NE18G29   29.82F
$$

SDZ004>011-016>023-039-040-302200-
NORTHEAST SOUTH DAKOTA

CITY           SKY/WX    TMP DP  RH WIND       PRES   REMARKS
ABERDEEN       PTSUNNY   58  14  17 NE21      29.87F
WATERTOWN      CLOUDY    46  26  45 NE20G30   29.82F
BROOKINGS      LGT RAIN  41  36  81 NE21G26   29.78F
SISSETON         N/A     54  24  31 E18       29.86F
$$

SDZ017-020-022-023-036>040-048>070-302200-
SOUTHEAST SOUTH DAKOTA

CITY           SKY/WX    TMP DP  RH WIND       PRES   REMARKS
SIOUX FALLS    LGT RAIN  41  41 100 NE28G36   29.72F FOG
HURON          CLOUDY    51  21  30 NE18G30   29.82F
CHAMBERLAIN    CLOUDY    52  25  34 N12       29.82F
MITCHELL       LGT RAIN  40  34  79 N17       29.80F
YANKTON        CLOUDY    39  37  93 N20       29.73R
$$

ABBREVIATIONS USED IN REMARKS
   TC - TEMPERATURE IN CELSIUS
  WCI - WIND CHILL INDEX
   HX - HEAT INDEX
  VSB - VISIBILITY





USA.gov is the U.S. government's official web portal to all federal, state and local government web resources and services.